When you browse on this site, cookies collect data to enhance your experience and personalize the content and advertising you see.
Visit our Privacy Policy to learn more. By continuing to use the site, you agree to this use of cookies and data.
  • In Hungary
  • List of Countries
  • For 7 days
  • Water Temperature
  • Satellite Maps
  • Weather Map
  • News
  • Weather Widgets
  • user-avatar
    Login

    Hourly Weather Ortaca

    Today, 19 December, Wednesday

    Time Temperature Precipitation Wind Pressure Humidity
    00:00 +10°C° 0.3 mm 2 mps 757 mmHg 92%
    01:00 +10°C° 0.3 mm 2 mps 757 mmHg 91%
    02:00 +12°C° 0.3 mm 2 mps 757 mmHg 90%
    03:00 +10°C° 0.2 mm 2 mps 757 mmHg 89%
    04:00 +10°C° 0.2 mm 2 mps 756 mmHg 88%
    05:00 +10°C° 0.2 mm 2 mps 756 mmHg 87%
    06:00 +10°C° 0.1 mm 2 mps 756 mmHg 87%
    07:00 +10°C° 0.1 mm 2 mps 757 mmHg 86%
    08:00 +10°C° 0.1 mm 2 mps 757 mmHg 85%
    09:00 +13°C° 0 mm 2 mps 757 mmHg 82%
    10:00 +14°C° 0 mm 2 mps 757 mmHg 79%
    11:00 +15°C° 0 mm 2 mps 757 mmHg 75%
    12:00 +14°C° 0 mm 3 mps 757 mmHg 74%
    13:00 +14°C° 0 mm 3 mps 757 mmHg 74%
    14:00 +14°C° 0 mm 3 mps 757 mmHg 73%
    15:00 +13°C° 0.1 mm 3 mps 757 mmHg 76%
    16:00 +12°C° 0.1 mm 4 mps 758 mmHg 79%
    17:00 +12°C° 0.1 mm 4 mps 758 mmHg 82%
    18:00 +11°C° 0 mm 4 mps 758 mmHg 83%
    19:00 +10°C° 0 mm 4 mps 759 mmHg 84%
    20:00 +10°C° 0 mm 4 mps 759 mmHg 85%
    21:00 +10°C° 0 mm 4 mps 760 mmHg 84%
    22:00 +8°C° 0 mm 4 mps 760 mmHg 84%
    23:00 +8°C° 0 mm 5 mps 761 mmHg 84%

    Tomorrow, 20 December, Thursday

    Time Temperature Precipitation Wind Pressure Humidity
    00:00 +8°C° 0 mm 4 mps 761 mmHg 84%
    01:00 +7°C° 0 mm 4 mps 761 mmHg 84%
    02:00 +7°C° 0 mm 4 mps 762 mmHg 84%
    03:00 +7°C° 0 mm 4 mps 762 mmHg 84%
    04:00 +6°C° 0 mm 4 mps 762 mmHg 84%
    05:00 +6°C° 0 mm 4 mps 762 mmHg 84%
    06:00 +6°C° 0 mm 4 mps 763 mmHg 83%
    07:00 +6°C° 0 mm 4 mps 763 mmHg 82%
    08:00 +6°C° 0 mm 4 mps 764 mmHg 81%
    09:00 +8°C° 0 mm 4 mps 764 mmHg 75%
    10:00 +11°C° 0 mm 4 mps 764 mmHg 69%
    11:00 +12°C° 0 mm 4 mps 764 mmHg 63%
    12:00 +13°C° 0 mm 4 mps 764 mmHg 61%
    13:00 +13°C° 0 mm 4 mps 763 mmHg 59%
    14:00 +14°C° 0 mm 4 mps 763 mmHg 57%
    15:00 +13°C° 0 mm 4 mps 763 mmHg 61%
    16:00 +12°C° 0 mm 4 mps 764 mmHg 66%
    17:00 +10°C° 0 mm 4 mps 764 mmHg 70%
    18:00 +10°C° 0 mm 3 mps 764 mmHg 72%
    19:00 +9°C° 0 mm 3 mps 765 mmHg 73%
    20:00 +9°C° 0 mm 3 mps 765 mmHg 75%
    21:00 +8°C° 0 mm 3 mps 766 mmHg 75%
    22:00 +8°C° 0 mm 3 mps 766 mmHg 75%
    23:00 +8°C° 0 mm 3 mps 766 mmHg 75%

    Day after tomorrow, 21 December, Friday

    Time Temperature Precipitation Wind Pressure Humidity
    00:00 +8°C° 0 mm 2 mps 766 mmHg 74%
    01:00 +8°C° 0 mm 2 mps 766 mmHg 73%
    02:00 +8°C° 0 mm 2 mps 766 mmHg 72%
    03:00 +8°C° 0 mm 2 mps 766 mmHg 71%
    04:00 +8°C° 0 mm 2 mps 766 mmHg 70%
    05:00 +8°C° 0 mm 2 mps 766 mmHg 68%
    06:00 +9°C° 0 mm 2 mps 766 mmHg 67%
    07:00 +9°C° 0 mm 2 mps 767 mmHg 65%
    08:00 +9°C° 0 mm 2 mps 767 mmHg 64%
    09:00 +12°C° 0 mm 2 mps 767 mmHg 58%
    10:00 +15°C° 0 mm 1 mps 767 mmHg 52%
    11:00 +18°C° 0 mm 1 mps 767 mmHg 46%
    12:00 +17°C° 0 mm 2 mps 767 mmHg 46%
    13:00 +17°C° 0 mm 2 mps 766 mmHg 46%
    14:00 +17°C° 0 mm 2 mps 766 mmHg 46%
    15:00 +16°C° 0 mm 2 mps 766 mmHg 54%
    16:00 +14°C° 0 mm 2 mps 766 mmHg 61%
    17:00 +12°C° 0 mm 2 mps 766 mmHg 69%
    18:00 +12°C° 0 mm 2 mps 766 mmHg 70%
    19:00 +10°C° 0 mm 2 mps 767 mmHg 71%
    20:00 +10°C° 0 mm 2 mps 767 mmHg 71%
    21:00 +10°C° 0 mm 2 mps 767 mmHg 71%
    22:00 +10°C° 0 mm 2 mps 767 mmHg 70%
    23:00 +10°C° 0 mm 3 mps 767 mmHg 69%

    22 December, Saturday

    Time Temperature Precipitation Wind Pressure Humidity
    00:00 +10°C° 0 mm 3 mps 767 mmHg 69%
    01:00 +9°C° 0 mm 3 mps 766 mmHg 70%
    02:00 +9°C° 0 mm 3 mps 766 mmHg 70%
    03:00 +9°C° 0 mm 3 mps 766 mmHg 71%
    04:00 +9°C° 0 mm 3 mps 766 mmHg 71%
    05:00 +8°C° 0 mm 3 mps 766 mmHg 71%
    06:00 +9°C° 0 mm 3 mps 766 mmHg 70%
    07:00 +9°C° 0 mm 3 mps 766 mmHg 69%
    08:00 +9°C° 0 mm 3 mps 766 mmHg 68%
    09:00 +11°C° 0 mm 3 mps 766 mmHg 60%
    10:00 +15°C° 0 mm 2 mps 766 mmHg 52%
    11:00 +17°C° 0 mm 2 mps 766 mmHg 43%
    12:00 +17°C° 0 mm 2 mps 766 mmHg 42%
    13:00 +18°C° 0 mm 2 mps 765 mmHg 40%
    14:00 +18°C° 0 mm 2 mps 764 mmHg 39%
    15:00 +16°C° 0 mm 2 mps 765 mmHg 46%
    16:00 +15°C° 0 mm 2 mps 765 mmHg 53%
    17:00 +13°C° 0 mm 1 mps 765 mmHg 60%
    18:00 +12°C° 0 mm 2 mps 765 mmHg 59%
    19:00 +12°C° 0 mm 2 mps 765 mmHg 58%
    20:00 +10°C° 0 mm 2 mps 765 mmHg 57%
    21:00 +10°C° 0 mm 2 mps 765 mmHg 56%
    22:00 +11°C° 0 mm 1 mps 765 mmHg 55%
    23:00 +11°C° 0 mm 1 mps 765 mmHg 53%

    23 December, Sunday

    Time Temperature Precipitation Wind Pressure Humidity
    00:00 +11°C° 0 mm 1 mps 765 mmHg 54%
    01:00 +11°C° 0 mm 1 mps 765 mmHg 54%
    02:00 +11°C° 0 mm 1 mps 765 mmHg 54%
    03:00 +10°C° 0 mm 1 mps 765 mmHg 55%
    04:00 +10°C° 0 mm 1 mps 765 mmHg 56%
    05:00 +10°C° 0 mm 1 mps 764 mmHg 57%
    06:00 +10°C° 0 mm 1 mps 765 mmHg 56%
    07:00 +11°C° 0 mm 1 mps 765 mmHg 55%
    08:00 +11°C° 0 mm 1 mps 765 mmHg 55%
    09:00 +13°C° 0 mm 1 mps 765 mmHg 52%
    10:00 +15°C° 0 mm 1 mps 765 mmHg 50%
    11:00 +18°C° 0 mm 1 mps 765 mmHg 48%
    12:00 +18°C° 0 mm 1 mps 765 mmHg 50%
    13:00 +18°C° 0 mm 2 mps 764 mmHg 52%
    14:00 +18°C° 0 mm 2 mps 764 mmHg 54%
    15:00 +16°C° 0 mm 1 mps 764 mmHg 63%
    16:00 +15°C° 0 mm 1 mps 764 mmHg 72%
    17:00 +13°C° 0 mm 1 mps 764 mmHg 81%
    18:00 +13°C° 0 mm 1 mps 764 mmHg 81%
    19:00 +12°C° 0 mm 1 mps 765 mmHg 80%
    20:00 +12°C° 0 mm 1 mps 765 mmHg 80%
    21:00 +12°C° 0 mm 1 mps 765 mmHg 76%
    22:00 +12°C° 0 mm 1 mps 765 mmHg 73%
    23:00 +11°C° 0 mm 1 mps 765 mmHg 69%

    24 December, Monday

    Time Temperature Precipitation Wind Pressure Humidity
    00:00 +10°C° 0 mm 2 mps 765 mmHg 66%
    01:00 +10°C° 0 mm 2 mps 765 mmHg 63%
    02:00 +10°C° 0 mm 2 mps 765 mmHg 60%
    03:00 +10°C° 0 mm 2 mps 765 mmHg 57%
    04:00 +10°C° 0 mm 2 mps 765 mmHg 55%
    05:00 +10°C° 0 mm 2 mps 764 mmHg 52%
    06:00 +10°C° 0 mm 2 mps 765 mmHg 51%
    07:00 +10°C° 0 mm 2 mps 765 mmHg 50%
    08:00 +12°C° 0 mm 2 mps 765 mmHg 49%
    09:00 +14°C° 0 mm 1 mps 765 mmHg 45%
    10:00 +16°C° 0 mm 1 mps 765 mmHg 41%
    11:00 +19°C° 0 mm 1 mps 765 mmHg 37%
    12:00 +20°C° 0 mm 1 mps 764 mmHg 38%
    13:00 +20°C° 0 mm 1 mps 764 mmHg 40%
    14:00 +19°C° 0 mm 2 mps 763 mmHg 41%
    15:00 +18°C° 0 mm 1 mps 763 mmHg 50%
    16:00 +15°C° 0 mm 1 mps 763 mmHg 58%
    17:00 +13°C° 0 mm 1 mps 763 mmHg 67%
    18:00 +13°C° 0 mm 1 mps 763 mmHg 67%
    19:00 +12°C° 0 mm 1 mps 764 mmHg 68%
    20:00 +12°C° 0 mm 1 mps 764 mmHg 69%
    21:00 +12°C° 0 mm 1 mps 764 mmHg 68%
    22:00 +12°C° 0 mm 1 mps 764 mmHg 68%
    23:00 +12°C° 0 mm 1 mps 764 mmHg 67%
    Show more